Year,Month,Day,Hour,Minute,Value (Times are PST for temperature in C)
2014,09,21,08,53,16.20
2014,09,21,08,54,16.20
2014,09,21,08,55,16.30
2014,09,21,08,56,16.30
2014,09,21,08,57,16.40
2014,09,21,08,58,16.40
2014,09,21,08,59,16.40
2014,09,21,09,00,16.50
2014,09,21,09,01,16.60
2014,09,21,09,02,16.70
2014,09,21,09,03,16.70
2014,09,21,09,04,16.80
2014,09,21,09,05,16.80
2014,09,21,09,06,16.90
2014,09,21,09,07,16.90
2014,09,21,09,08,17.00
2014,09,21,09,09,17.00
2014,09,21,09,10,17.00
2014,09,21,09,11,17.10
2014,09,21,09,12,17.10
2014,09,21,09,13,17.10
2014,09,21,09,14,17.10
2014,09,21,09,15,17.10
2014,09,21,09,16,17.10
2014,09,21,09,17,17.10
2014,09,21,09,18,17.20
2014,09,21,09,19,17.20
2014,09,21,09,20,17.20
2014,09,21,09,21,17.20
2014,09,21,09,22,17.20
2014,09,21,09,23,17.30
2014,09,21,09,24,17.30
2014,09,21,09,25,17.30
2014,09,21,09,26,17.30
2014,09,21,09,27,17.30
2014,09,21,09,28,17.40
2014,09,21,09,29,17.40
2014,09,21,09,30,17.50
2014,09,21,09,31,17.50
2014,09,21,09,32,17.60
2014,09,21,09,33,17.70
2014,09,21,09,34,17.70
2014,09,21,09,35,17.70
2014,09,21,09,36,17.80
2014,09,21,09,37,17.80
2014,09,21,09,38,17.90
2014,09,21,09,39,17.90
2014,09,21,09,40,17.90
2014,09,21,09,41,17.90
2014,09,21,09,42,17.90
2014,09,21,09,43,17.90
2014,09,21,09,44,17.90
2014,09,21,09,45,18.00
2014,09,21,09,46,18.10
2014,09,21,09,47,18.10
2014,09,21,09,48,18.10
2014,09,21,09,49,18.20
2014,09,21,09,50,18.20
2014,09,21,09,51,18.20
2014,09,21,09,52,18.20
2014,09,21,09,53,18.20
2014,09,21,09,54,18.20
2014,09,21,09,55,18.20
2014,09,21,09,56,18.20
2014,09,21,09,57,18.20
2014,09,21,09,58,18.20
2014,09,21,09,59,18.20
2014,09,21,10,00,18.30
2014,09,21,10,01,18.30
2014,09,21,10,02,18.30
2014,09,21,10,03,18.40
2014,09,21,10,04,18.40
2014,09,21,10,05,18.40
2014,09,21,10,06,18.40
2014,09,21,10,07,18.40
2014,09,21,10,08,18.30
2014,09,21,10,09,18.40
2014,09,21,10,10,18.40
2014,09,21,10,11,18.40
2014,09,21,10,12,18.50
2014,09,21,10,13,18.50
2014,09,21,10,14,18.60
2014,09,21,10,15,18.60
2014,09,21,10,16,18.60
2014,09,21,10,17,18.60
2014,09,21,10,18,18.60
2014,09,21,10,19,18.60
2014,09,21,10,20,18.50
2014,09,21,10,21,18.50
2014,09,21,10,22,18.50
2014,09,21,10,23,18.50
2014,09,21,10,24,18.50
2014,09,21,10,25,18.50
2014,09,21,10,26,18.50
2014,09,21,10,27,18.50
2014,09,21,10,28,18.50
2014,09,21,10,29,18.50
2014,09,21,10,30,18.60
2014,09,21,10,31,18.60
2014,09,21,10,32,18.60
2014,09,21,10,33,18.60
2014,09,21,10,34,18.60
2014,09,21,10,35,18.60
2014,09,21,10,36,18.70
2014,09,21,10,37,18.70
2014,09,21,10,38,18.80
2014,09,21,10,39,18.90
2014,09,21,10,40,18.90
2014,09,21,10,41,19.00
2014,09,21,10,42,19.10
2014,09,21,10,43,19.10
2014,09,21,10,44,19.20
2014,09,21,10,45,19.30
2014,09,21,10,46,19.30
2014,09,21,10,47,19.40
2014,09,21,10,48,19.40
2014,09,21,10,49,19.40
2014,09,21,10,50,19.50
2014,09,21,10,51,19.50
2014,09,21,10,52,19.50
2014,09,21,10,53,19.60
2014,09,21,10,54,19.60
2014,09,21,10,55,19.60
2014,09,21,10,56,19.70
2014,09,21,10,57,19.70
2014,09,21,10,58,19.70
2014,09,21,10,59,19.70
2014,09,21,11,00,19.70
2014,09,21,11,01,19.70
2014,09,21,11,02,19.70
2014,09,21,11,03,19.70
2014,09,21,11,04,19.70
2014,09,21,11,05,19.70
2014,09,21,11,06,19.70
2014,09,21,11,07,19.80
2014,09,21,11,08,19.90
2014,09,21,11,09,19.90
2014,09,21,11,10,20.00
2014,09,21,11,11,20.10
2014,09,21,11,12,20.20
2014,09,21,11,13,20.20
2014,09,21,11,14,20.30
2014,09,21,11,15,20.40
2014,09,21,11,16,20.40
2014,09,21,11,17,20.40
2014,09,21,11,18,20.50
2014,09,21,11,19,20.50
2014,09,21,11,20,20.50
2014,09,21,11,21,20.60
2014,09,21,11,22,20.60
2014,09,21,11,23,20.70
2014,09,21,11,24,20.70
2014,09,21,11,25,20.80
2014,09,21,11,26,20.90
2014,09,21,11,27,20.90
2014,09,21,11,28,21.00
2014,09,21,11,29,21.00
2014,09,21,11,30,21.00
2014,09,21,11,31,21.00
2014,09,21,11,32,21.10
2014,09,21,11,33,21.10
2014,09,21,11,34,21.20
2014,09,21,11,35,21.20
2014,09,21,11,36,21.30
2014,09,21,11,37,21.30
2014,09,21,11,38,21.30
2014,09,21,11,39,21.30
2014,09,21,11,40,21.30
2014,09,21,11,41,21.30
2014,09,21,11,42,21.30
2014,09,21,11,43,21.30
2014,09,21,11,44,21.30
2014,09,21,11,45,21.40
2014,09,21,11,46,21.40
2014,09,21,11,47,21.40
2014,09,21,11,48,21.40
2014,09,21,11,49,21.40
2014,09,21,11,50,21.50
2014,09,21,11,51,21.60
2014,09,21,11,52,21.60
2014,09,21,11,53,21.60
2014,09,21,11,54,21.60
2014,09,21,11,55,21.70
2014,09,21,11,56,21.80
2014,09,21,11,57,21.90
2014,09,21,11,58,22.00
2014,09,21,11,59,22.10
2014,09,21,12,00,22.20
2014,09,21,12,01,22.30
2014,09,21,12,02,22.40
2014,09,21,12,03,22.50
2014,09,21,12,04,22.50
2014,09,21,12,05,22.70
2014,09,21,12,06,22.80
2014,09,21,12,07,22.90
2014,09,21,12,08,23.00
2014,09,21,12,09,23.20
2014,09,21,12,10,23.30
2014,09,21,12,11,23.30
2014,09,21,12,12,23.30
2014,09,21,12,13,23.30
2014,09,21,12,14,23.30
2014,09,21,12,15,23.30
2014,09,21,12,16,23.30
2014,09,21,12,17,23.20
2014,09,21,12,18,23.20
2014,09,21,12,19,23.10
2014,09,21,12,20,23.00
2014,09,21,12,21,22.90
2014,09,21,12,22,22.80
2014,09,21,12,23,22.60
2014,09,21,12,24,22.60
2014,09,21,12,25,22.40
2014,09,21,12,26,22.30
2014,09,21,12,27,22.20
2014,09,21,12,28,22.20
2014,09,21,12,29,22.20
2014,09,21,12,30,22.30
2014,09,21,12,31,22.30
2014,09,21,12,32,22.30
2014,09,21,12,33,22.00
2014,09,21,12,34,21.80
2014,09,21,12,35,21.60
2014,09,21,12,36,21.60
2014,09,21,12,37,21.70
2014,09,21,12,38,21.80
2014,09,21,12,39,21.70
2014,09,21,12,40,21.70
2014,09,21,12,41,21.80
2014,09,21,12,42,21.80
2014,09,21,12,43,21.70
2014,09,21,12,44,21.70
2014,09,21,12,45,21.80
2014,09,21,12,46,21.90
2014,09,21,12,47,22.00
2014,09,21,12,48,22.00
2014,09,21,12,49,22.00
2014,09,21,12,50,22.00
2014,09,21,12,51,22.00
2014,09,21,12,52,22.00
2014,09,21,12,53,22.00
2014,09,21,12,54,22.10
2014,09,21,12,55,22.10
2014,09,21,12,56,22.00
2014,09,21,12,57,21.90
2014,09,21,12,58,21.80
2014,09,21,12,59,21.70
2014,09,21,13,00,21.60
2014,09,21,13,01,21.60
2014,09,21,13,02,21.60
2014,09,21,13,03,21.50
2014,09,21,13,04,21.60
2014,09,21,13,05,21.60
2014,09,21,13,06,21.50
2014,09,21,13,07,21.40
2014,09,21,13,08,21.40
2014,09,21,13,09,21.40
2014,09,21,13,10,21.40
2014,09,21,13,11,21.50
2014,09,21,13,12,21.60
2014,09,21,13,13,21.50
2014,09,21,13,14,21.40
2014,09,21,13,15,21.50
2014,09,21,13,16,21.60
2014,09,21,13,17,21.60
2014,09,21,13,18,21.60
2014,09,21,13,19,21.60
2014,09,21,13,20,21.70
2014,09,21,13,21,21.70
2014,09,21,13,22,21.70
2014,09,21,13,23,21.80
2014,09,21,13,24,21.70
2014,09,21,13,25,21.80
2014,09,21,13,26,21.80
2014,09,21,13,27,21.80
2014,09,21,13,28,21.70
2014,09,21,13,29,21.70
2014,09,21,13,30,21.70
2014,09,21,13,31,21.70
2014,09,21,13,32,21.70
2014,09,21,13,33,21.80
2014,09,21,13,34,21.90
2014,09,21,13,35,22.00
2014,09,21,13,36,22.20
2014,09,21,13,37,22.30
2014,09,21,13,38,22.30
2014,09,21,13,39,22.20
2014,09,21,13,40,22.10
2014,09,21,13,41,22.10
2014,09,21,13,42,22.20
2014,09,21,13,43,22.20
2014,09,21,13,44,22.10
2014,09,21,13,45,22.10
2014,09,21,13,46,22.00
2014,09,21,13,47,22.00
2014,09,21,13,48,22.10
2014,09,21,13,49,22.10
2014,09,21,13,50,22.10
2014,09,21,13,51,22.20
2014,09,21,13,52,22.30
2014,09,21,13,53,22.40
2014,09,21,13,54,22.40
2014,09,21,13,55,22.50
2014,09,21,13,56,22.50
2014,09,21,13,57,22.50
2014,09,21,13,58,22.60
2014,09,21,13,59,22.60
2014,09,21,14,00,22.60
2014,09,21,14,01,22.60
2014,09,21,14,02,22.60
2014,09,21,14,03,22.70
2014,09,21,14,04,22.70
2014,09,21,14,05,22.70
2014,09,21,14,06,22.60
2014,09,21,14,07,22.60
2014,09,21,14,08,22.50
2014,09,21,14,09,22.40
2014,09,21,14,10,22.50
2014,09,21,14,11,22.60
2014,09,21,14,12,22.60
2014,09,21,14,13,22.70
2014,09,21,14,14,22.70
2014,09,21,14,15,22.80
2014,09,21,14,16,22.90
2014,09,21,14,17,22.90
2014,09,21,14,18,22.90
2014,09,21,14,19,22.90
2014,09,21,14,20,22.90
2014,09,21,14,21,23.00
2014,09,21,14,22,23.10
2014,09,21,14,23,23.10
2014,09,21,14,24,23.20
2014,09,21,14,25,23.30
2014,09,21,14,26,23.30
2014,09,21,14,27,23.30
2014,09,21,14,28,23.40
2014,09,21,14,29,23.50
2014,09,21,14,30,23.60
2014,09,21,14,31,23.70
2014,09,21,14,32,23.70
2014,09,21,14,33,23.70
2014,09,21,14,34,23.70
2014,09,21,14,35,23.70
2014,09,21,14,36,23.70
2014,09,21,14,37,23.80
2014,09,21,14,38,23.80
2014,09,21,14,39,23.80
2014,09,21,14,40,23.80
2014,09,21,14,41,23.70
2014,09,21,14,42,23.70
2014,09,21,14,43,23.70
2014,09,21,14,44,23.60
2014,09,21,14,45,23.60
2014,09,21,14,46,23.60
2014,09,21,14,47,23.60
2014,09,21,14,48,23.70
2014,09,21,14,49,23.70
2014,09,21,14,50,23.80
2014,09,21,14,51,23.70
2014,09,21,14,52,23.70
2014,09,21,14,53,23.70
2014,09,21,14,54,23.70
2014,09,21,14,55,23.60
2014,09,21,14,56,23.60
2014,09,21,14,57,23.60
2014,09,21,14,58,23.70
2014,09,21,14,59,23.70
2014,09,21,15,00,23.70
2014,09,21,15,01,23.70
2014,09,21,15,02,23.80
2014,09,21,15,03,23.80
2014,09,21,15,04,23.90
2014,09,21,15,05,24.00
2014,09,21,15,06,24.10
2014,09,21,15,07,24.10
2014,09,21,15,08,24.10
2014,09,21,15,09,24.10
2014,09,21,15,10,24.10
2014,09,21,15,11,24.30
2014,09,21,15,12,24.40
2014,09,21,15,13,24.50
2014,09,21,15,14,24.50
2014,09,21,15,15,24.50
2014,09,21,15,16,24.60
2014,09,21,15,17,24.60
2014,09,21,15,18,24.50
2014,09,21,15,19,24.50
2014,09,21,15,20,24.50
2014,09,21,15,21,24.50
2014,09,21,15,22,24.40
2014,09,21,15,23,24.30
2014,09,21,15,24,24.20
2014,09,21,15,25,24.20
2014,09,21,15,26,24.10
2014,09,21,15,27,24.10
2014,09,21,15,28,24.10
2014,09,21,15,29,24.00
2014,09,21,15,30,23.90
2014,09,21,15,31,23.80
2014,09,21,15,32,23.80
2014,09,21,15,33,23.90
2014,09,21,15,34,24.00
2014,09,21,15,35,24.10
2014,09,21,15,36,24.20
2014,09,21,15,37,24.30
2014,09,21,15,38,24.40
2014,09,21,15,39,24.40
2014,09,21,15,40,24.40
2014,09,21,15,41,24.40
2014,09,21,15,42,24.30
2014,09,21,15,43,24.30
2014,09,21,15,44,24.20
2014,09,21,15,45,24.10
2014,09,21,15,46,24.10
2014,09,21,15,47,24.10
2014,09,21,15,48,24.10
2014,09,21,15,49,24.20
2014,09,21,15,50,24.20
2014,09,21,15,51,24.20
2014,09,21,15,52,24.30
2014,09,21,15,53,24.30
2014,09,21,15,54,24.30
2014,09,21,15,55,24.30
2014,09,21,15,56,24.40
2014,09,21,15,57,24.50
2014,09,21,15,58,24.50
2014,09,21,15,59,24.60
2014,09,21,16,00,24.60
2014,09,21,16,01,24.50
2014,09,21,16,02,24.40
2014,09,21,16,03,24.40
2014,09,21,16,04,24.40
2014,09,21,16,05,24.40
2014,09,21,16,06,24.40
2014,09,21,16,07,24.40
2014,09,21,16,08,24.40
2014,09,21,16,09,24.30
2014,09,21,16,10,24.40
2014,09,21,16,11,24.40
2014,09,21,16,12,24.40
2014,09,21,16,13,24.40
2014,09,21,16,14,24.40
2014,09,21,16,15,24.40
2014,09,21,16,16,24.50
2014,09,21,16,17,24.50
2014,09,21,16,18,24.50
2014,09,21,16,19,24.50
2014,09,21,16,20,24.50
2014,09,21,16,21,24.50
2014,09,21,16,22,24.40
2014,09,21,16,23,24.30
2014,09,21,16,24,24.30
2014,09,21,16,25,24.40
2014,09,21,16,26,24.40
2014,09,21,16,27,24.40
2014,09,21,16,28,24.30
2014,09,21,16,29,24.30
2014,09,21,16,30,24.30
2014,09,21,16,31,24.20
2014,09,21,16,32,24.20
2014,09,21,16,33,24.20
2014,09,21,16,34,24.10
2014,09,21,16,35,24.00
2014,09,21,16,36,23.90
2014,09,21,16,37,23.80
2014,09,21,16,38,23.80
2014,09,21,16,39,23.80
2014,09,21,16,40,23.80
2014,09,21,16,41,23.80
2014,09,21,16,42,23.70
2014,09,21,16,43,23.70
2014,09,21,16,44,23.70
2014,09,21,16,45,23.80
2014,09,21,16,46,23.80
2014,09,21,16,47,23.90
2014,09,21,16,48,23.90
2014,09,21,16,49,23.90
2014,09,21,16,50,24.00
2014,09,21,16,51,23.90
2014,09,21,16,52,23.90
2014,09,21,16,53,23.70
2014,09,21,16,54,23.70
2014,09,21,16,55,23.60
2014,09,21,16,56,23.60
2014,09,21,16,57,23.50
2014,09,21,16,58,23.60
2014,09,21,16,59,23.60
2014,09,21,17,00,23.60
2014,09,21,17,01,23.50
2014,09,21,17,02,23.40
2014,09,21,17,03,23.30
2014,09,21,17,04,23.30
2014,09,21,17,05,23.30
2014,09,21,17,06,23.30
2014,09,21,17,07,23.40
2014,09,21,17,08,23.40
2014,09,21,17,09,23.40
2014,09,21,17,10,23.40
2014,09,21,17,11,23.30
2014,09,21,17,12,23.20
2014,09,21,17,13,23.10
2014,09,21,17,14,23.10
2014,09,21,17,15,23.00
2014,09,21,17,16,22.90
2014,09,21,17,17,22.90
2014,09,21,17,18,22.80
2014,09,21,17,19,22.70
2014,09,21,17,20,22.70
2014,09,21,17,21,22.60
2014,09,21,17,22,22.60
2014,09,21,17,23,22.50
2014,09,21,17,24,22.50
2014,09,21,17,25,22.50
2014,09,21,17,26,22.50
2014,09,21,17,27,22.60
2014,09,21,17,28,22.60
2014,09,21,17,29,22.60
2014,09,21,17,30,22.60
2014,09,21,17,31,22.60
2014,09,21,17,32,22.60
2014,09,21,17,33,22.70
2014,09,21,17,34,22.80
2014,09,21,17,35,22.80
2014,09,21,17,36,22.80
2014,09,21,17,37,22.80
2014,09,21,17,38,22.80
2014,09,21,17,39,22.70
2014,09,21,17,40,22.60
2014,09,21,17,41,22.60
2014,09,21,17,42,22.60
2014,09,21,17,43,22.60
2014,09,21,17,44,22.50
2014,09,21,17,45,22.40
2014,09,21,17,46,22.40
2014,09,21,17,47,22.30
2014,09,21,17,48,22.30
2014,09,21,17,49,22.30
2014,09,21,17,50,22.20
2014,09,21,17,51,22.20
2014,09,21,17,52,22.10
2014,09,21,17,53,22.10
2014,09,21,17,54,22.10
2014,09,21,17,55,22.10
2014,09,21,17,56,22.10
2014,09,21,17,57,22.10
2014,09,21,17,58,22.10
2014,09,21,17,59,22.10
2014,09,21,18,00,22.10
2014,09,21,18,01,22.10
2014,09,21,18,02,22.10
2014,09,21,18,03,22.10
2014,09,21,18,04,22.10
2014,09,21,18,05,22.00
2014,09,21,18,06,21.90
2014,09,21,18,07,21.90
2014,09,21,18,08,21.90
2014,09,21,18,09,21.90
2014,09,21,18,10,21.90
2014,09,21,18,11,21.90
2014,09,21,18,12,22.00
2014,09,21,18,13,22.00
2014,09,21,18,14,22.00
2014,09,21,18,15,22.00
2014,09,21,18,16,22.00
2014,09,21,18,17,22.00
2014,09,21,18,18,22.00
2014,09,21,18,19,22.00
2014,09,21,18,20,22.00
2014,09,21,18,21,22.00
2014,09,21,18,22,22.00
2014,09,21,18,23,21.90
2014,09,21,18,24,21.90
2014,09,21,18,25,21.90
2014,09,21,18,26,21.90
2014,09,21,18,27,21.90
2014,09,21,18,28,21.90
2014,09,21,18,29,21.90
2014,09,21,18,30,21.90
2014,09,21,18,31,21.90
2014,09,21,18,32,21.90
2014,09,21,18,33,21.90
2014,09,21,18,34,21.90
2014,09,21,18,35,21.90
2014,09,21,18,36,21.90
2014,09,21,18,37,21.90
2014,09,21,18,38,21.90
2014,09,21,18,39,21.90
2014,09,21,18,40,21.80
2014,09,21,18,41,21.80
2014,09,21,18,42,21.80
2014,09,21,18,43,21.80
2014,09,21,18,44,21.80
2014,09,21,18,45,21.80
2014,09,21,18,46,21.80
2014,09,21,18,47,21.80
2014,09,21,18,48,21.80
2014,09,21,18,49,21.70
2014,09,21,18,50,21.70
2014,09,21,18,51,21.70
2014,09,21,18,52,21.60
2014,09,21,18,53,21.60
2014,09,21,18,54,21.60
2014,09,21,18,55,21.60
2014,09,21,18,56,21.60
2014,09,21,18,57,21.60
2014,09,21,18,58,21.60
2014,09,21,18,59,21.50
2014,09,21,19,00,21.40
2014,09,21,19,01,21.40
2014,09,21,19,02,21.40
2014,09,21,19,03,21.40
2014,09,21,19,04,21.30
2014,09,21,19,05,21.30
2014,09,21,19,06,21.30
2014,09,21,19,07,21.30
2014,09,21,19,08,21.30
2014,09,21,19,09,21.30
2014,09,21,19,10,21.30
2014,09,21,19,11,21.30
2014,09,21,19,12,21.30
2014,09,21,19,13,21.30
2014,09,21,19,14,21.30
